"Pseudo-MPEC" for P10QBZp

Created 2019 Aug 15 14:07:05 UT using Find_Orb

Click here for an explanation of pseudo-MPECs

 
 Astrometry: 
     P10QBZp  C2019 08 12LaDZDmD)oCTVyUkxJk6E?c!1I6eRQRa$9+^7x]tGZN$3]oe-;!SZF51
     P10QBZp  C2019 08 12dTFgE1?vcVf9mdvA20ojC,_.:/G5M![:F3wc9Q?YjfD@-0PVsb9[F51
     P10QBZp  C2019 08 13VnD#)qAstrometryYeYx0'lbFKRfosMYI)3wEM2AWY$N8vnrnl(uF51
     P10QBZp  C2019 08 13^ju0w;YphmsKJp-]LN:,,Bx\6pP]S%uC_@;sj)f.FhYTK+\?kibjF51
     P10QBZp  C2019 08 13%R:Vim[ek6Je+wVicNw0Vdredacted;BFa-i#Qo0lclick%S_:**F51
     P10QBZp pC2019 08 15Cp6@%^ThereHJ32lO2.\Veh%OZ^)sx!X)DN??.xWTfor%fgk3WASL01
     P10QBZp IC2019 08 153`A86Uvs(Ot`2shQ8v)I8]N%K?lAv3tdMoVc$-6-61GH*6yvf\E%L01
     P10QBZp IC2019 08 15?s^jlPfB=`,j0=.4$Du:/wb93;5ywZX-payFMB=g(bQEJ@IH;=X8L01
     P10QBZp KC2019 08 15%q%@aY=A74ObO(.JC-hu,lo0:dMrWSj\MQoEL-YUo.^Wdb7aoY6KL01
     P10QBZp pC2019 08 15+ffp9^MF(ct3Y?`@R;i:SX8explanation?1q0gC;-/eGGlGP0AcL01

Station data:
(F51) Pan-STARRS 1, Haleakala  (N20.707235 W156.255910)  US/Hawaii.
   Observers N. Primak, A. Schultz, S. Watters, J. Thiel, T. Goggia. Measurer
   PS1 Science Consortium. 1.8-m Ritchey-Chrétien + CCD.
(L01) Višnjan Observatory, Tičan  (N45.290900 E13.749300)  Croatia.
   Observers K. Korlević, E. Pettarin. Measurer E. Pettarin. 1.0-m f/2.9
   reflector + CCD.

Orbital elements:  P10QBZp
   Perihelion 2019 Jul 19.887022 +/- 1.32 TT = 21:17:18 (JD 2458684.387022)
Epoch 2019 Aug 15.0 TT = JDT 2458710.5   Earth MOID: 0.1962   AutoNEOCP
M  11.48989685 +/- 1.1              (J2000 ecliptic)
n   0.44000714 +/- 0.0221           Peri.  146.46677 +/- 1.1
a   1.71197030 +/- 0.0572           Node   161.15515 +/- 0.17
e   0.3206472 +/- 0.0189            Incl.   34.16246 +/- 0.8
P   2.24/818.15d           H 21.6   G  0.15   U 10.2  
q 1.16303172 +/- 0.00647    Q 2.26090888 +/- 0.106
From 10 observations 2019 Aug. 12-15; mean residual 0".34
Residuals in arcseconds: 
190812 F51  .05-  .02-    190813 F51  .08+  .09-    190815 L01  .66-  .03-    
190812 F51  .01-  .00     190815 L01  .50+  .19+    190815 L01  .95+  .36-    
190813 F51  .13+  .01+    190815 L01  .25-  .27+    
190813 F51  .09-  .12+    190815 L01  .59-  .07-    

Ephemerides (geocentric):
Date (UTC) HH   RA              Dec         delta   r     elong  mag " sig PA
---- -- -- --  -------------   -----------  ------ ------ -----  --- ---- ---
2019 08 15 14  00 29 46.742   +28 17 02.06  .29028 1.1875 120.7 21.1 .647 122
2019 08 15 15  00 29 52.702   +28 13 03.21  .29006 1.1876 120.7 21.1 .674 121
2019 08 15 16  00 29 58.656   +28 09 03.91  .28985 1.1876 120.8 21.1 .703 121
2019 08 15 17  00 30 04.606   +28 05 04.17  .28963 1.1877 120.9 21.1 .732 121
2019 08 15 18  00 30 10.550   +28 01 03.99  .28942 1.1878 120.9 21.1 .761 121
2019 08 15 19  00 30 16.489   +27 57 03.36  .28921 1.1879 121.0 21.1 .792 120
2019 08 15 20  00 30 22.422   +27 53 02.29  .28900 1.1879 121.1 21.1 .822 120
2019 08 15 21  00 30 28.350   +27 49 00.78  .28878 1.1880 121.1 21.1 .854 120
2019 08 15 22  00 30 34.273   +27 44 58.82  .28857 1.1881 121.2 21.1 .886 120
2019 08 15 23  00 30 40.191   +27 40 56.42  .28836 1.1882 121.2 21.1 .918 119
2019 08 16 00  00 30 46.103   +27 36 53.58  .28815 1.1882 121.3 21.1 .951 119
2019 08 16 01  00 30 52.010   +27 32 50.29  .28794 1.1883 121.4 21.1 .985 119
2019 08 16 02  00 30 57.911   +27 28 46.56  .28773 1.1884 121.4 21.1 1.02 119
2019 08 16 03  00 31 03.807   +27 24 42.38  .28752 1.1885 121.5 21.1 1.05 118
2019 08 16 04  00 31 09.698   +27 20 37.77  .28731 1.1886 121.5 21.1 1.09 118
2019 08 16 05  00 31 15.583   +27 16 32.70  .28711 1.1886 121.6 21.1 1.13 118
2019 08 16 06  00 31 21.463   +27 12 27.20  .28690 1.1887 121.7 21.1 1.16 118
2019 08 16 07  00 31 27.338   +27 08 21.25  .28669 1.1888 121.7 21.1 1.20 118
2019 08 16 08  00 31 33.207   +27 04 14.85  .28648 1.1889 121.8 21.1 1.24 117
2019 08 16 09  00 31 39.071   +27 00 08.01  .28628 1.1889 121.9 21.1 1.28 117
2019 08 16 10  00 31 44.929   +26 56 00.73  .28607 1.1890 121.9 21.1 1.32 117
2019 08 16 11  00 31 50.782   +26 51 53.00  .28587 1.1891 122.0 21.1 1.36 117
2019 08 16 12  00 31 56.629   +26 47 44.83  .28566 1.1892 122.1 21.1 1.40 117
2019 08 16 13  00 32 02.471   +26 43 36.22  .28546 1.1892 122.1 21.1 1.44 116
2019 08 16 14  00 32 08.308   +26 39 27.16  .28525 1.1893 122.2 21.1 1.48 116
2019 08 16 15  00 32 14.139   +26 35 17.66  .28505 1.1894 122.2 21.0 1.52 116
2019 08 16 16  00 32 19.964   +26 31 07.71  .28484 1.1895 122.3 21.0 1.57 116
2019 08 16 17  00 32 25.784   +26 26 57.32  .28464 1.1896 122.4 21.0 1.61 116
2019 08 16 18  00 32 31.599   +26 22 46.48  .28444 1.1896 122.4 21.0 1.65 115
2019 08 16 19  00 32 37.408   +26 18 35.20  .28424 1.1897 122.5 21.0 1.70 115
2019 08 16 20  00 32 43.212   +26 14 23.48  .28404 1.1898 122.6 21.0 1.74 115
2019 08 16 21  00 32 49.010   +26 10 11.31  .28384 1.1899 122.6 21.0 1.79 115
2019 08 16 22  00 32 54.803   +26 05 58.70  .28364 1.1899 122.7 21.0 1.84 115
2019 08 16 23  00 33 00.590   +26 01 45.64  .28344 1.1900 122.7 21.0 1.89 115
2019 08 17 00  00 33 06.371   +25 57 32.14  .28324 1.1901 122.8 21.0 1.93 114
2019 08 17 01  00 33 12.147   +25 53 18.20  .28304 1.1902 122.9 21.0 1.98 114
2019 08 17 02  00 33 17.918   +25 49 03.81  .28284 1.1903 122.9 21.0 2.03 114
2019 08 17 03  00 33 23.682   +25 44 48.98  .28264 1.1903 123.0 21.0 2.08 114
2019 08 17 04  00 33 29.442   +25 40 33.71  .28244 1.1904 123.1 21.0 2.13 114
2019 08 17 05  00 33 35.195   +25 36 17.99  .28225 1.1905 123.1 21.0 2.18 114
2019 08 17 06  00 33 40.943   +25 32 01.83  .28205 1.1906 123.2 21.0 2.24 114
2019 08 17 07  00 33 46.686   +25 27 45.23  .28186 1.1906 123.3 21.0 2.29 113
2019 08 17 08  00 33 52.423   +25 23 28.18  .28166 1.1907 123.3 21.0 2.34 113
2019 08 17 09  00 33 58.154   +25 19 10.69  .28147 1.1908 123.4 21.0 2.40 113
2019 08 17 10  00 34 03.880   +25 14 52.76  .28127 1.1909 123.4 21.0 2.45 113
2019 08 17 11  00 34 09.600   +25 10 34.39  .28108 1.1910 123.5 21.0 2.51 113
2019 08 17 12  00 34 15.314   +25 06 15.57  .28088 1.1910 123.6 21.0 2.57 113
2019 08 17 13  00 34 21.023   +25 01 56.31  .28069 1.1911 123.6 21.0 2.62 113